sat.trackr.live / text

‹ back to catalog

STARLINK-30132

NORAD 56703 · 2023-067R

PAYLOAD ACTIVE UNKNOWN

§ Identity

Operator
Country
US
Launch date
2023-05-19
Launch site
AFETR
Launch vehicle
Mass (kg)
RCS (m²)

Purposes: comms

External: N2YO · Heavens-Above · Gunter

§ Orbital elements

Epoch: 2026-05-25T04:22:57.238752Z

Period
94.27 min
Inclination
42.9976°
Eccentricity
0.0001050
Mean motion
15.27573386 rev/d
Perigee alt
482.3 km
Apogee alt
483.8 km
Semi-major
6,861.2 km
B*
3.7063e-5
RAAN
202.0463°
Arg perigee
280.4168°
Mean anomaly
79.6565°
Rev number
16,736

§ Raw data

STARLINK-301321 56703U 23067R   26145.18260693  .00000758  00000+0  37063-4 0  99942 56703  42.9976 202.0463 0001050 280.4168  79.6565 15.27573386167360

JSON: /api/v1/satellites/56703 · /tle

For live sub-satellite position, see the globe view (requires WebGL).

§ Visibility from observer

Set your observer location to see the next 7 days of passes ≥ 10°. The values pass through the URL so the page stays shareable.

No JS? Fill the form by hand. The geolocation button needs JavaScript.